����,���ϕ���(m/s),���ϕ���,�ő�u�ԕ���(m/s),�ő啗��������,�C��(��),���x(%),10���Ԉړ��ώZ�J��(mm),1���Ԉړ��ώZ�J��(mm),���J��(mm),�݌v�J��(mm)
2020-02-17T00:00:00+09:00,5.3,��,11.4,�쓌,10.2,66.6,0,0,5.5,5.5
2020-02-17T00:01:00+09:00,5.3,��쐼,11.4,�쓌,10.2,66.2,0,0,0,5.5
2020-02-17T00:02:00+09:00,5.2,��쐼,10.5,��,10.2,66.3,0,0,0,5.5
2020-02-17T00:03:00+09:00,5.2,��쐼,10.5,��,10.1,67.3,0,0,0,5.5
2020-02-17T00:04:00+09:00,5,��쐼,10.5,��,10,68.5,0,0,0,5.5
2020-02-17T00:05:00+09:00,4.8,��쐼,9.9,��,9.9,68.5,0,0,0,5.5
2020-02-17T00:06:00+09:00,4.9,��쐼,9.5,��쐼,10,67.3,0,0,0,5.5
2020-02-17T00:07:00+09:00,4.9,��쐼,9.5,��쐼,10,67,0,0,0,5.5
2020-02-17T00:08:00+09:00,5.1,��쐼,9.5,��쐼,9.9,67.2,0,0,0,5.5
2020-02-17T00:09:00+09:00,5.2,��쐼,9.5,��쐼,9.9,66.6,0,0,0,5.5
2020-02-17T00:10:00+09:00,5,��쐼,9.4,��쐼,9.8,67.7,0,0,0,5.5
2020-02-17T00:11:00+09:00,4.9,��쐼,9.4,��쐼,9.8,67.6,0,0,0,5.5
2020-02-17T00:12:00+09:00,5,��쐼,9.4,��쐼,9.8,67.5,0,0,0,5.5
2020-02-17T00:13:00+09:00,5.2,��쐼,9.4,��쐼,9.8,67,0,0,0,5.5
2020-02-17T00:14:00+09:00,5.3,��쐼,9.4,��쐼,9.7,67.2,0,0,0,5.5
2020-02-17T00:15:00+09:00,5.3,��쐼,9.4,��쐼,9.7,67.6,0,0,0,5.5
2020-02-17T00:16:00+09:00,5.2,��쐼,10.1,��쐼,9.7,67.6,0,0,0,5.5
2020-02-17T00:17:00+09:00,5.3,��쐼,10.1,��쐼,9.7,67,0,0,0,5.5
2020-02-17T00:18:00+09:00,5.3,��쐼,10.1,��쐼,9.7,66.4,0,0,0,5.5
2020-02-17T00:19:00+09:00,5.4,��쐼,10.1,��쐼,9.7,65.8,0,0,0,5.5
2020-02-17T00:20:00+09:00,5.5,��쐼,10.1,��쐼,9.6,66.4,0,0,0,5.5
2020-02-17T00:21:00+09:00,5.6,��쐼,10.1,��쐼,9.6,67.2,0,0,0,5.5
2020-02-17T00:22:00+09:00,5.7,��쐼,10.1,��쐼,9.5,66.9,0,0,0,5.5
2020-02-17T00:23:00+09:00,5.6,��쐼,10.1,��쐼,9.5,67.8,0,0,0,5.5
2020-02-17T00:24:00+09:00,5.7,��쐼,10.1,��쐼,9.5,68.1,0,0,0,5.5
2020-02-17T00:25:00+09:00,5.8,��쐼,10.1,��쐼,9.4,67.7,0,0,0,5.5
2020-02-17T00:26:00+09:00,5.8,��쐼,10,��쐼,9.3,68.1,0,0,0,5.5
2020-02-17T00:27:00+09:00,5.8,��쐼,10,��쐼,9.3,67.8,0,0,0,5.5
2020-02-17T00:28:00+09:00,5.7,��쐼,10,��쐼,9.3,67.6,0,0,0,5.5
2020-02-17T00:29:00+09:00,5.7,��쐼,10,��쐼,9.1,68.5,0,0,0,5.5
2020-02-17T00:30:00+09:00,5.7,��쐼,9.8,��,9.2,67.9,0,0,0,5.5
2020-02-17T00:31:00+09:00,5.8,��쐼,11,��쐼,9.2,67.1,0,0,0,5.5
2020-02-17T00:32:00+09:00,5.8,��쐼,11,��쐼,9.3,66,0,0,0,5.5
2020-02-17T00:33:00+09:00,5.8,��쐼,11,��쐼,9.2,65.8,0,0,0,5.5
2020-02-17T00:34:00+09:00,5.8,��쐼,11,��쐼,9.2,65.9,0,0,0,5.5
2020-02-17T00:35:00+09:00,5.7,��쐼,11,��쐼,9.1,66.3,0,0,0,5.5
2020-02-17T00:36:00+09:00,5.6,��쐼,11,��쐼,9,66.8,0,0,0,5.5
2020-02-17T00:37:00+09:00,5.6,��쐼,11,��쐼,9,66.4,0,0,0,5.5
2020-02-17T00:38:00+09:00,5.7,��쐼,11,��쐼,9.1,65.5,0,0,0,5.5
2020-02-17T00:39:00+09:00,5.9,��쐼,11,��쐼,9.1,65,0,0,0,5.5
2020-02-17T00:40:00+09:00,5.9,��쐼,11,��쐼,9,64.9,0,0,0,5.5
2020-02-17T00:41:00+09:00,6,��쐼,10.8,�쐼,9,65.2,0,0,0,5.5
2020-02-17T00:42:00+09:00,5.9,��쐼,10.8,�쐼,9.1,63.9,0,0,0,5.5
2020-02-17T00:43:00+09:00,6.1,��쐼,10.8,�쐼,9,64.7,0,0,0,5.5
2020-02-17T00:44:00+09:00,6.1,��쐼,10.8,�쐼,9,65,0,0,0,5.5
2020-02-17T00:45:00+09:00,6.1,��쐼,10.8,�쐼,8.9,65.2,0,0,0,5.5
2020-02-17T00:46:00+09:00,6.1,��쐼,10.8,�쐼,8.9,65.4,0,0,0,5.5
2020-02-17T00:47:00+09:00,6,��쐼,10.8,�쐼,8.9,64.6,0,0,0,5.5
2020-02-17T00:48:00+09:00,5.9,��쐼,10.3,��쐼,8.8,65,0,0,0,5.5
2020-02-17T00:49:00+09:00,5.8,��쐼,10.6,��쐼,8.9,63.9,0,0,0,5.5
2020-02-17T00:50:00+09:00,5.8,��쐼,10.6,��쐼,8.9,63.2,0,0,0,5.5
2020-02-17T00:51:00+09:00,5.6,��쐼,10.6,��쐼,9,62.1,0,0,0,5.5
2020-02-17T00:52:00+09:00,5.5,��쐼,10.6,��쐼,8.9,63,0,0,0,5.5
2020-02-17T00:53:00+09:00,5.4,��쐼,10.6,��쐼,8.9,63.2,0,0,0,5.5
2020-02-17T00:54:00+09:00,5.2,��쐼,10.6,��쐼,8.8,63.1,0,0,0,5.5
2020-02-17T00:55:00+09:00,5.2,��쐼,10.6,��쐼,8.8,64,0,0,0,5.5
2020-02-17T00:56:00+09:00,5,��쐼,10.6,��쐼,8.8,63.7,0,0,0,5.5
2020-02-17T00:57:00+09:00,4.8,��쐼,10.6,��쐼,8.8,63.9,0,0,0,5.5
2020-02-17T00:58:00+09:00,4.8,��쐼,10.6,��쐼,8.7,63.9,0,0,0,5.5
2020-02-17T00:59:00+09:00,4.6,��쐼,7.9,��쐼,8.7,63.5,0,0,0,5.5
2020-02-17T01:00:00+09:00,4.4,��쐼,7.9,��쐼,8.6,64.1,0,0,0,5.5
2020-02-17T01:01:00+09:00,4.3,��쐼,7.9,��쐼,8.6,63.7,0,0,0,5.5
2020-02-17T01:02:00+09:00,4.1,��쐼,7.4,�쐼,8.6,63.1,0,0,0,5.5
2020-02-17T01:03:00+09:00,4,��쐼,7.4,�쐼,8.6,63.3,0,0,0,5.5
2020-02-17T01:04:00+09:00,3.9,��쐼,7.4,�쐼,8.7,62.8,0,0,0,5.5
2020-02-17T01:05:00+09:00,3.9,��쐼,7.4,�쐼,8.6,63.4,0,0,0,5.5
2020-02-17T01:06:00+09:00,4,��쐼,7.4,�쐼,8.6,62.5,0,0,0,5.5
2020-02-17T01:07:00+09:00,4.4,��쐼,9,�쐼,8.7,60.4,0,0,0,5.5
2020-02-17T01:08:00+09:00,4.5,��쐼,9,�쐼,8.6,60.6,0,0,0,5.5
2020-02-17T01:09:00+09:00,4.5,��쐼,9,�쐼,8.7,59.9,0,0,0,5.5
2020-02-17T01:10:00+09:00,4.6,�쐼,9,�쐼,8.6,60.3,0,0,0,5.5
2020-02-17T01:11:00+09:00,4.8,�쐼,9,�쐼,8.6,60.6,0,0,0,5.5
2020-02-17T01:12:00+09:00,5,�쐼,9,�쐼,8.5,61.3,0,0,0,5.5
2020-02-17T01:13:00+09:00,5.2,�쐼,9,�쐼,8.5,61.1,0,0,0,5.5
2020-02-17T01:14:00+09:00,5.4,�쐼,9,�쐼,8.5,60.4,0,0,0,5.5
2020-02-17T01:15:00+09:00,5.4,�쐼,9,�쐼,8.5,61,0,0,0,5.5
2020-02-17T01:16:00+09:00,5.4,�쐼,9,�쐼,8.5,60.6,0,0,0,5.5
2020-02-17T01:17:00+09:00,5.3,�쐼,7.9,�쐼,8.6,59.2,0,0,0,5.5
2020-02-17T01:18:00+09:00,5.2,�쐼,7.7,�쐼,8.6,58.8,0,0,0,5.5
2020-02-17T01:19:00+09:00,5.3,�쐼,7.8,�쐼,8.5,59.7,0,0,0,5.5
2020-02-17T01:20:00+09:00,5.3,�쐼,7.8,�쐼,8.5,59.9,0,0,0,5.5
2020-02-17T01:21:00+09:00,5.2,�쐼,7.8,�쐼,8.5,59.4,0,0,0,5.5
2020-02-17T01:22:00+09:00,5.2,�쐼,7.8,�쐼,8.5,58.2,0,0,0,5.5
2020-02-17T01:23:00+09:00,5.1,��쐼,7.8,�쐼,8.4,59.9,0,0,0,5.5
2020-02-17T01:24:00+09:00,5.1,��쐼,7.8,�쐼,8.4,60.1,0,0,0,5.5
2020-02-17T01:25:00+09:00,5.2,��쐼,8,�쐼,8.5,58.9,0,0,0,5.5
2020-02-17T01:26:00+09:00,5.1,��쐼,8,�쐼,8.5,58.3,0,0,0,5.5
2020-02-17T01:27:00+09:00,4.9,��쐼,8,�쐼,8.4,58.7,0,0,0,5.5
2020-02-17T01:28:00+09:00,5,��쐼,8.7,�쐼,8.4,58.8,0,0,0,5.5
2020-02-17T01:29:00+09:00,5,��쐼,8.7,�쐼,8.4,58.7,0,0,0,5.5
2020-02-17T01:30:00+09:00,5,��쐼,8.7,�쐼,8.5,57.3,0,0,0,5.5
2020-02-17T01:31:00+09:00,4.9,��쐼,8.7,�쐼,8.5,57.5,0,0,0,5.5
2020-02-17T01:32:00+09:00,4.9,��쐼,8.7,�쐼,8.5,57.6,0,0,0,5.5
2020-02-17T01:33:00+09:00,5,��쐼,8.7,�쐼,8.4,58,0,0,0,5.5
2020-02-17T01:34:00+09:00,4.9,��쐼,8.7,�쐼,8.4,58.4,0,0,0,5.5
2020-02-17T01:35:00+09:00,4.8,��쐼,8.7,�쐼,8.4,58.4,0,0,0,5.5
2020-02-17T01:36:00+09:00,4.8,��쐼,8.7,�쐼,8.3,58.1,0,0,0,5.5
2020-02-17T01:37:00+09:00,5.1,�쐼,9,�쐼,8.3,58.7,0,0,0,5.5
2020-02-17T01:38:00+09:00,4.8,�쐼,9,�쐼,8.4,57.5,0,0,0,5.5
2020-02-17T01:39:00+09:00,4.8,�쐼,9,�쐼,8.4,57.9,0,0,0,5.5
2020-02-17T01:40:00+09:00,4.9,�쐼,9,�쐼,8.3,57.2,0,0,0,5.5
2020-02-17T01:41:00+09:00,4.9,�쐼,9,�쐼,8.2,58.6,0,0,0,5.5
2020-02-17T01:42:00+09:00,4.9,�쐼,9,�쐼,8.1,59.2,0,0,0,5.5
2020-02-17T01:43:00+09:00,4.8,�쐼,9,�쐼,8.1,58.9,0,0,0,5.5
2020-02-17T01:44:00+09:00,4.8,�쐼,9,�쐼,8.1,59,0,0,0,5.5
2020-02-17T01:45:00+09:00,4.7,�쐼,9,�쐼,8.1,58.8,0,0,0,5.5
2020-02-17T01:46:00+09:00,4.7,�쐼,9,�쐼,8,59.1,0,0,0,5.5
2020-02-17T01:47:00+09:00,4.6,�쐼,7.7,��쐼,8.1,58.3,0,0,0,5.5
2020-02-17T01:48:00+09:00,4.6,��쐼,7.7,��쐼,8.1,57.7,0,0,0,5.5
2020-02-17T01:49:00+09:00,4.5,�쐼,7.7,��쐼,8,59,0,0,0,5.5
2020-02-17T01:50:00+09:00,4.5,�쐼,7.7,��쐼,8,58.4,0,0,0,5.5
2020-02-17T01:51:00+09:00,4.5,�쐼,7.7,�쐼,8,58.3,0,0,0,5.5
2020-02-17T01:52:00+09:00,4.5,�쐼,7.7,�쐼,8,58.4,0,0,0,5.5
2020-02-17T01:53:00+09:00,4.5,�쐼,7.7,�쐼,7.9,58.4,0,0,0,5.5
2020-02-17T01:54:00+09:00,4.5,�쐼,7.7,�쐼,7.8,59.1,0,0,0,5.5
2020-02-17T01:55:00+09:00,4.8,�쐼,8,�쐼,7.9,58.9,0,0,0,5.5
2020-02-17T01:56:00+09:00,4.9,�쐼,8,�쐼,7.9,58.5,0,0,0,5.5
2020-02-17T01:57:00+09:00,4.9,�쐼,8,�쐼,7.8,59.1,0,0,0,5.5
2020-02-17T01:58:00+09:00,4.7,�쐼,8,�쐼,7.7,59.9,0,0,0,5.5
2020-02-17T01:59:00+09:00,4.6,�쐼,8,�쐼,7.7,59.1,0,0,0,5.5
2020-02-17T02:00:00+09:00,4.5,�쐼,8,�쐼,7.7,59.5,0,0,0,5.5
2020-02-17T02:01:00+09:00,4.3,�쐼,8,�쐼,7.7,59,0,0,0,5.5
2020-02-17T02:02:00+09:00,4.2,�쐼,8,�쐼,7.7,59,0,0,0,5.5
2020-02-17T02:03:00+09:00,4.2,�쐼,8,�쐼,7.7,58.9,0,0,0,5.5
2020-02-17T02:04:00+09:00,4.2,�쐼,8,�쐼,7.8,58.1,0,0,0,5.5
2020-02-17T02:05:00+09:00,4,�쐼,7.7,���쐼,7.7,59,0,0,0,5.5
2020-02-17T02:06:00+09:00,4,�쐼,6.4,�쐼,7.8,58.2,0,0,0,5.5
2020-02-17T02:07:00+09:00,4,�쐼,6.4,�쐼,7.7,59,0,0,0,5.5
2020-02-17T02:08:00+09:00,4.2,�쐼,6.7,�쐼,7.7,59,0,0,0,5.5
2020-02-17T02:09:00+09:00,4.3,�쐼,6.7,�쐼,7.7,59.7,0,0,0,5.5
2020-02-17T02:10:00+09:00,4.3,�쐼,6.7,�쐼,7.6,60.5,0,0,0,5.5
2020-02-17T02:11:00+09:00,4.3,�쐼,6.7,�쐼,7.5,60.9,0,0,0,5.5
2020-02-17T02:12:00+09:00,4.4,�쐼,6.7,�쐼,7.6,60.8,0,0,0,5.5
2020-02-17T02:13:00+09:00,4.4,�쐼,6.7,�쐼,7.6,60.6,0,0,0,5.5
2020-02-17T02:14:00+09:00,4.4,�쐼,6.7,�쐼,7.7,58.7,0,0,0,5.5
2020-02-17T02:15:00+09:00,4.4,�쐼,6.7,�쐼,7.8,58.2,0,0,0,5.5
2020-02-17T02:16:00+09:00,4.3,�쐼,6.7,�쐼,7.8,58.1,0,0,0,5.5
2020-02-17T02:17:00+09:00,4.2,�쐼,6.7,�쐼,7.7,59.1,0,0,0,5.5
2020-02-17T02:18:00+09:00,4.3,�쐼,7.7,���쐼,7.7,58.8,0,0,0,5.5
2020-02-17T02:19:00+09:00,4.3,�쐼,8,���쐼,7.8,57.7,0,0,0,5.5
2020-02-17T02:20:00+09:00,4.4,�쐼,8,���쐼,7.7,58.4,0,0,0,5.5
2020-02-17T02:21:00+09:00,4.5,�쐼,8,���쐼,7.7,57.7,0,0,0,5.5
2020-02-17T02:22:00+09:00,4.4,�쐼,8,���쐼,7.8,57.6,0,0,0,5.5
2020-02-17T02:23:00+09:00,4.1,�쐼,8,���쐼,7.7,58.1,0,0,0,5.5
2020-02-17T02:24:00+09:00,3.9,�쐼,8,���쐼,7.7,58.3,0,0,0,5.5
2020-02-17T02:25:00+09:00,3.9,�쐼,8,���쐼,7.6,58.6,0,0,0,5.5
2020-02-17T02:26:00+09:00,3.9,�쐼,8,���쐼,7.5,59.9,0,0,0,5.5
2020-02-17T02:27:00+09:00,4,�쐼,8,���쐼,7.5,61.1,0,0,0,5.5
2020-02-17T02:28:00+09:00,3.8,�쐼,8,���쐼,7.5,60.2,0,0,0,5.5
2020-02-17T02:29:00+09:00,3.5,�쐼,6.3,�쐼,7.6,59.7,0,0,0,5.5
2020-02-17T02:30:00+09:00,3.4,�쐼,6.3,�쐼,7.5,60.5,0,0,0,5.5
2020-02-17T02:31:00+09:00,3.3,�쐼,6.3,�쐼,7.6,59.8,0,0,0,5.5
2020-02-17T02:32:00+09:00,3.3,�쐼,6.3,�쐼,7.7,58.1,0,0,0,5.5
2020-02-17T02:33:00+09:00,3.3,�쐼,6.3,�쐼,7.6,59.1,0,0,0,5.5
2020-02-17T02:34:00+09:00,3.4,�쐼,6.3,�쐼,7.6,59,0,0,0,5.5
2020-02-17T02:35:00+09:00,3.2,�쐼,6.3,�쐼,7.5,59.5,0,0,0,5.5
2020-02-17T02:36:00+09:00,3,�쐼,6.3,�쐼,7.4,60.3,0,0,0,5.5
2020-02-17T02:37:00+09:00,2.7,�쐼,5.6,���쐼,7.4,61,0,0,0,5.5
2020-02-17T02:38:00+09:00,2.7,�쐼,5.6,���쐼,7.3,61.4,0,0,0,5.5
2020-02-17T02:39:00+09:00,2.7,�쐼,5.6,���쐼,7.2,62.3,0,0,0,5.5
2020-02-17T02:40:00+09:00,2.8,�쐼,5.3,�쐼,7.2,62.9,0,0,0,5.5
2020-02-17T02:41:00+09:00,2.7,�쐼,4.5,�쐼,7.2,62.4,0,0,0,5.5
2020-02-17T02:42:00+09:00,2.8,�쐼,4.6,�쐼,7.2,62.7,0,0,0,5.5
2020-02-17T02:43:00+09:00,3,�쐼,4.6,�쐼,7.2,63.2,0,0,0,5.5
2020-02-17T02:44:00+09:00,2.9,�쐼,4.6,�쐼,7.2,63.4,0,0,0,5.5
2020-02-17T02:45:00+09:00,2.8,�쐼,4.6,�쐼,7.3,62.2,0,0,0,5.5
2020-02-17T02:46:00+09:00,2.9,�쐼,4.6,�쐼,7.4,61.4,0,0,0,5.5
2020-02-17T02:47:00+09:00,2.9,�쐼,4.6,�쐼,7.4,60.9,0,0,0,5.5
2020-02-17T02:48:00+09:00,2.9,�쐼,4.6,�쐼,7.4,61.9,0,0,0,5.5
2020-02-17T02:49:00+09:00,2.9,�쐼,4.6,�쐼,7.3,62,0,0,0,5.5
2020-02-17T02:50:00+09:00,3,�쐼,4.6,�쐼,7.4,61.5,0,0,0,5.5
2020-02-17T02:51:00+09:00,3,�쐼,4.6,�쐼,7.4,61.4,0,0,0,5.5
2020-02-17T02:52:00+09:00,3,�쐼,4.6,�쐼,7.4,61.1,0,0,0,5.5
2020-02-17T02:53:00+09:00,2.9,�쐼,4.5,�쐼,7.3,61.8,0,0,0,5.5
2020-02-17T02:54:00+09:00,2.9,�쐼,4.5,�쐼,7.2,62.9,0,0,0,5.5
2020-02-17T02:55:00+09:00,3,�쐼,4.5,�쐼,7.2,64,0,0,0,5.5
2020-02-17T02:56:00+09:00,3,�쐼,4.5,�쐼,7.1,64.2,0,0,0,5.5
2020-02-17T02:57:00+09:00,3,�쐼,4.5,�쐼,7.1,64.9,0,0,0,5.5
2020-02-17T02:58:00+09:00,3,�쐼,4.4,�쐼,7.3,61.7,0,0,0,5.5
2020-02-17T02:59:00+09:00,3,�쐼,4.4,�쐼,7.5,59.4,0,0,0,5.5
2020-02-17T03:00:00+09:00,3,�쐼,5.2,�쐼,7.5,59,0,0,0,5.5
2020-02-17T03:01:00+09:00,3.1,�쐼,5.3,�쐼,7.5,58.9,0,0,0,5.5
2020-02-17T03:02:00+09:00,3,�쐼,5.3,�쐼,7.5,58.9,0,0,0,5.5
2020-02-17T03:03:00+09:00,3,�쐼,5.3,�쐼,7.5,59,0,0,0,5.5
2020-02-17T03:04:00+09:00,2.7,���쐼,5.3,�쐼,7.5,59.6,0,0,0,5.5
2020-02-17T03:05:00+09:00,2.5,���쐼,5.3,�쐼,7.5,59.6,0,0,0,5.5
2020-02-17T03:06:00+09:00,2.3,���쐼,5.3,�쐼,7.5,59.2,0,0,0,5.5
2020-02-17T03:07:00+09:00,2.1,���쐼,5.3,�쐼,7.3,61.3,0,0,0,5.5
2020-02-17T03:08:00+09:00,1.9,���쐼,5.3,�쐼,7.3,63.2,0,0,0,5.5
2020-02-17T03:09:00+09:00,1.6,���쐼,5.3,�쐼,7.3,65.1,0,0,0,5.5
2020-02-17T03:10:00+09:00,1.2,��,5.3,�쐼,7.3,66.5,0,0,0,5.5
2020-02-17T03:11:00+09:00,0.8,��,3.5,���쐼,7.3,67,0,0,0,5.5
2020-02-17T03:12:00+09:00,0.6,��,2.7,���쐼,7.3,67.4,0,0,0,5.5
2020-02-17T03:13:00+09:00,0.5,���k��,2.1,�쐼,7.3,68.3,0,0,0,5.5
2020-02-17T03:14:00+09:00,0.6,���k��,2.1,�쐼,7.2,69.7,0,0,0,5.5
2020-02-17T03:15:00+09:00,0.7,���k��,2.1,�쐼,7.2,69.9,0,0,0,5.5
2020-02-17T03:16:00+09:00,0.7,���k��,2.1,�쐼,7.1,70.5,0,0,0,5.5
2020-02-17T03:17:00+09:00,0.6,�k��,1.7,�k�k��,7.1,71.1,0,0,0,5.5
2020-02-17T03:18:00+09:00,0.6,�k��,1.7,�k�k��,7,70.9,0,0,0,5.5
2020-02-17T03:19:00+09:00,0.6,�k��,1.7,�k�k��,7,70.9,0,0,0,5.5
2020-02-17T03:20:00+09:00,0.7,�k��,1.7,�k�k��,7,71.3,0,0,0,5.5
2020-02-17T03:21:00+09:00,0.7,�k�k��,1.7,�k�k��,7,71.6,0,0,0,5.5
2020-02-17T03:22:00+09:00,0.7,�k�k��,1.7,�k�k��,7.1,73,0,0,0,5.5
2020-02-17T03:23:00+09:00,0.7,�k�k��,1.6,���k��,7,73.5,0,0,0,5.5
2020-02-17T03:24:00+09:00,0.6,�k,1,�k�k��,6.9,73.9,0,0,0,5.5
2020-02-17T03:25:00+09:00,0.5,�k,1,�k�k��,6.8,74.3,0,0,0,5.5
2020-02-17T03:26:00+09:00,0.5,�k,1,�k�k��,6.8,73.1,0,0,0,5.5
2020-02-17T03:27:00+09:00,0.5,�k,1.3,�k�k��,6.8,73.7,0,0,0,5.5
2020-02-17T03:28:00+09:00,0.6,�k,1.9,�k�k��,6.9,73.5,0,0,0,5.5
2020-02-17T03:29:00+09:00,0.7,�k,2.8,�k��,6.9,73.8,0,0,0,5.5
2020-02-17T03:30:00+09:00,0.9,�k,3.4,�k��,6.8,74.4,0,0,0,5.5
2020-02-17T03:31:00+09:00,1.1,�k�k��,3.6,�k�k��,6.7,74.8,0,0,0,5.5
2020-02-17T03:32:00+09:00,1.4,�k�k��,3.6,�k�k��,6.7,75,0,0,0,5.5
2020-02-17T03:33:00+09:00,1.6,�k�k��,3.9,�k�k��,6.6,75.1,0,0,0,5.5
2020-02-17T03:34:00+09:00,1.8,�k�k��,3.9,�k�k��,6.6,75.1,0,0,0,5.5
2020-02-17T03:35:00+09:00,2,�k�k��,3.9,�k�k��,6.6,75.2,0,0,0,5.5
2020-02-17T03:36:00+09:00,2.3,�k��,4.5,�k��,6.6,75.6,0,0,0,5.5
2020-02-17T03:37:00+09:00,2.4,�k��,4.5,�k��,6.6,75.5,0,0,0,5.5
2020-02-17T03:38:00+09:00,2.5,�k��,4.5,�k��,6.7,75.9,0,0,0,5.5
2020-02-17T03:39:00+09:00,2.6,�k��,4.5,�k��,6.6,76.1,0,0,0,5.5
2020-02-17T03:40:00+09:00,2.5,�k��,4.5,�k��,6.5,75.3,0,0,0,5.5
2020-02-17T03:41:00+09:00,2.4,�k��,4.5,�k��,6.5,75.6,0,0,0,5.5
2020-02-17T03:42:00+09:00,2.3,�k��,4.5,�k��,6.5,76.3,0,0,0,5.5
2020-02-17T03:43:00+09:00,2.3,�k��,4.5,�k��,6.5,76.1,0,0,0,5.5
2020-02-17T03:44:00+09:00,2.1,�k��,4.5,�k��,6.4,76,0,0,0,5.5
2020-02-17T03:45:00+09:00,2.1,�k��,4.5,�k��,6.4,76.2,0,0,0,5.5
2020-02-17T03:46:00+09:00,2,�k��,3.2,�k��,6.5,76.6,0,0,0,5.5
2020-02-17T03:47:00+09:00,1.9,�k��,2.7,�k��,6.4,76,0,0,0,5.5
2020-02-17T03:48:00+09:00,1.9,�k��,2.7,�k��,6.4,76,0,0,0,5.5
2020-02-17T03:49:00+09:00,1.9,�k��,2.8,�k�k��,6.3,76.1,0,0,0,5.5
2020-02-17T03:50:00+09:00,1.9,�k��,2.8,�k�k��,6.3,75.7,0,0,0,5.5
2020-02-17T03:51:00+09:00,2,�k��,2.9,�k��,6.3,75.9,0,0,0,5.5
2020-02-17T03:52:00+09:00,2,�k��,2.9,�k��,6.3,76.2,0,0,0,5.5
2020-02-17T03:53:00+09:00,1.9,�k��,2.9,�k��,6.3,76.5,0,0,0,5.5
2020-02-17T03:54:00+09:00,2,�k��,2.9,�k��,6.3,76.8,0,0,0,5.5
2020-02-17T03:55:00+09:00,2.1,�k��,3.2,�k�k��,6.2,76.3,0,0,0,5.5
2020-02-17T03:56:00+09:00,2.1,�k��,3.2,�k�k��,6.2,76.2,0,0,0,5.5
2020-02-17T03:57:00+09:00,2.2,�k�k��,3.5,�k,6.2,76.3,0,0,0,5.5
2020-02-17T03:58:00+09:00,2.2,�k�k��,3.5,�k,6.1,76.2,0,0,0,5.5
2020-02-17T03:59:00+09:00,2.2,�k�k��,3.5,�k,6,76.5,0,0,0,5.5
2020-02-17T04:00:00+09:00,2.2,�k�k��,3.5,�k,6,76.8,0,0,0,5.5
2020-02-17T04:01:00+09:00,2.1,�k�k��,3.5,�k,6,77.2,0,0,0,5.5
2020-02-17T04:02:00+09:00,2.2,�k�k��,3.5,�k,6,77.1,0,0,0,5.5
2020-02-17T04:03:00+09:00,2.2,�k�k��,3.5,�k,6,77,0,0,0,5.5
2020-02-17T04:04:00+09:00,2.2,�k�k��,3.5,�k,6,77.1,0,0,0,5.5
2020-02-17T04:05:00+09:00,2.2,�k�k��,3.5,�k,6,77.1,0,0,0,5.5
2020-02-17T04:06:00+09:00,2.2,�k�k��,3.5,�k,5.9,76.9,0,0,0,5.5
2020-02-17T04:07:00+09:00,2.2,�k�k��,3.6,�k�k��,5.9,77.1,0,0,0,5.5
2020-02-17T04:08:00+09:00,2.1,�k�k��,3.6,�k�k��,5.9,77.2,0,0,0,5.5
2020-02-17T04:09:00+09:00,2.1,�k�k��,3.6,�k�k��,5.9,77.2,0,0,0,5.5
2020-02-17T04:10:00+09:00,2.1,�k�k��,3.6,�k�k��,5.8,77.3,0,0,0,5.5
2020-02-17T04:11:00+09:00,2.1,�k�k��,3.6,�k�k��,5.8,77.4,0,0,0,5.5
2020-02-17T04:12:00+09:00,2,�k�k��,3.6,�k�k��,5.8,77.6,0,0,0,5.5
2020-02-17T04:13:00+09:00,1.8,�k�k��,3.6,�k�k��,5.8,78.2,0,0,0,5.5
2020-02-17T04:14:00+09:00,1.8,�k�k��,3.6,�k�k��,5.9,78.3,0,0,0,5.5
2020-02-17T04:15:00+09:00,1.7,�k�k��,3.6,�k�k��,5.9,78.5,0,0,0,5.5
2020-02-17T04:16:00+09:00,1.7,�k�k��,3.6,�k�k��,5.9,78.3,0,0,0,5.5
2020-02-17T04:17:00+09:00,1.8,�k��,3.4,�k��,5.8,78.1,0,0,0,5.5
2020-02-17T04:18:00+09:00,1.8,�k��,3.4,�k��,5.9,78.3,0,0,0,5.5
2020-02-17T04:19:00+09:00,1.7,�k��,3.4,�k��,5.9,78.9,0,0,0,5.5
2020-02-17T04:20:00+09:00,1.6,�k��,3.4,�k��,5.9,78.9,0,0,0,5.5
2020-02-17T04:21:00+09:00,1.6,�k��,3.4,�k��,5.9,78.3,0,0,0,5.5
2020-02-17T04:22:00+09:00,1.7,�k��,3.4,�k��,5.9,78.6,0,0,0,5.5
2020-02-17T04:23:00+09:00,1.7,�k��,3.4,�k��,5.8,78.9,0,0,0,5.5
2020-02-17T04:24:00+09:00,1.7,�k��,3.4,�k��,5.8,79.1,0,0,0,5.5
2020-02-17T04:25:00+09:00,1.7,�k��,3.4,�k��,5.8,79.2,0,0,0,5.5
2020-02-17T04:26:00+09:00,1.8,���k��,3.4,�k��,5.8,79,0,0,0,5.5
2020-02-17T04:27:00+09:00,1.7,���k��,3.3,���k��,5.8,78.5,0,0,0,5.5
2020-02-17T04:28:00+09:00,1.7,���k��,3.3,���k��,5.8,78.1,0,0,0,5.5
2020-02-17T04:29:00+09:00,1.8,���k��,3.3,���k��,5.8,77.8,0,0,0,5.5
2020-02-17T04:30:00+09:00,1.9,���k��,3.3,���k��,5.9,77.7,0,0,0,5.5
2020-02-17T04:31:00+09:00,1.9,���k��,3.3,���k��,5.9,77.4,0,0,0,5.5
2020-02-17T04:32:00+09:00,1.9,���k��,3.3,���k��,5.8,77,0,0,0,5.5
2020-02-17T04:33:00+09:00,1.9,���k��,3.3,���k��,5.8,76.5,0,0,0,5.5
2020-02-17T04:34:00+09:00,1.9,���k��,3.3,���k��,5.9,76.9,0,0,0,5.5
2020-02-17T04:35:00+09:00,1.8,�k��,3.3,���k��,5.8,77.1,0,0,0,5.5
2020-02-17T04:36:00+09:00,1.7,�k��,3.3,���k��,5.8,76.4,0,0,0,5.5
2020-02-17T04:37:00+09:00,1.8,�k��,3.3,���k��,5.8,76.6,0,0,0,5.5
2020-02-17T04:38:00+09:00,1.7,�k��,3.3,���k��,5.8,76.5,0,0,0,5.5
2020-02-17T04:39:00+09:00,1.7,�k��,3,�k��,5.8,76.7,0,0,0,5.5
2020-02-17T04:40:00+09:00,1.6,�k��,3,�k��,5.7,76.9,0,0,0,5.5
2020-02-17T04:41:00+09:00,1.6,�k��,2.7,�k��,5.7,77.5,0,0,0,5.5
2020-02-17T04:42:00+09:00,1.6,�k��,2.7,�k��,5.6,77.7,0,0,0,5.5
2020-02-17T04:43:00+09:00,1.7,�k�k��,2.7,�k��,5.6,77.9,0,0,0,5.5
2020-02-17T04:44:00+09:00,1.8,�k�k��,3,�k�k��,5.7,78.2,0,0,0,5.5
2020-02-17T04:45:00+09:00,1.8,�k�k��,3,�k�k��,5.7,78,0,0,0,5.5
2020-02-17T04:46:00+09:00,1.9,�k�k��,3,�k�k��,5.7,76.8,0,0,0,5.5
2020-02-17T04:47:00+09:00,1.8,�k�k��,3,�k�k��,5.7,76.8,0,0,0,5.5
2020-02-17T04:48:00+09:00,1.8,�k�k��,3,�k�k��,5.6,77.9,0,0,0,5.5
2020-02-17T04:49:00+09:00,1.8,�k�k��,3,�k�k��,5.6,78.7,0,0,0,5.5
2020-02-17T04:50:00+09:00,1.8,�k�k��,3,�k�k��,5.5,78.6,0,0,0,5.5
2020-02-17T04:51:00+09:00,1.7,�k�k��,3,�k�k��,5.6,79.2,0,0,0,5.5
2020-02-17T04:52:00+09:00,1.8,�k�k��,3,�k�k��,5.7,79.7,0,0,0,5.5
2020-02-17T04:53:00+09:00,1.8,�k�k��,3,�k�k��,5.7,79,0,0,0,5.5
2020-02-17T04:54:00+09:00,1.8,�k�k��,2.9,�k�k��,5.6,77.8,0,0,0,5.5
2020-02-17T04:55:00+09:00,1.7,�k�k��,2.9,�k�k��,5.7,77.9,0,0,0,5.5
2020-02-17T04:56:00+09:00,1.7,�k�k��,2.9,�k�k��,5.7,78,0,0,0,5.5
2020-02-17T04:57:00+09:00,1.7,�k�k��,2.9,�k�k��,5.7,77.9,0,0,0,5.5
2020-02-17T04:58:00+09:00,1.7,�k�k��,2.9,�k�k��,5.6,77.9,0,0,0,5.5
2020-02-17T04:59:00+09:00,1.6,�k�k��,2.9,�k�k��,5.6,78.1,0,0,0,5.5
2020-02-17T05:00:00+09:00,1.6,�k�k��,2.9,�k�k��,5.6,78.6,0,0,0,5.5
2020-02-17T05:01:00+09:00,1.5,�k�k��,2.9,�k�k��,5.6,79.1,0,0,0,5.5
2020-02-17T05:02:00+09:00,1.5,�k�k��,2.9,�k�k��,5.6,79.3,0,0,0,5.5
2020-02-17T05:03:00+09:00,1.5,�k�k��,2.9,�k�k��,5.6,78.8,0,0,0,5.5
2020-02-17T05:04:00+09:00,1.4,�k�k��,2.4,�k��,5.6,78.7,0,0,0,5.5
2020-02-17T05:05:00+09:00,1.4,�k�k��,2.4,�k�k��,5.6,78.9,0,0,0,5.5
2020-02-17T05:06:00+09:00,1.4,�k�k��,2.4,�k�k��,5.6,79.1,0,0,0,5.5
2020-02-17T05:07:00+09:00,1.5,�k�k��,2.4,�k�k��,5.6,79,0,0,0,5.5
2020-02-17T05:08:00+09:00,1.5,�k�k��,2.4,�k�k��,5.6,79,0,0,0,5.5
2020-02-17T05:09:00+09:00,1.5,�k�k��,2.4,�k�k��,5.6,79.1,0,0,0,5.5
2020-02-17T05:10:00+09:00,1.6,�k�k��,2.4,�k�k��,5.6,79,0,0,0,5.5
2020-02-17T05:11:00+09:00,1.6,�k�k��,2.4,�k�k��,5.6,78.5,0,0,0,5.5
2020-02-17T05:12:00+09:00,1.6,�k�k��,2.4,�k�k��,5.6,78.5,0,0,0,5.5
2020-02-17T05:13:00+09:00,1.6,�k�k��,2.4,�k�k��,5.5,78.6,0,0,0,5.5
2020-02-17T05:14:00+09:00,1.6,�k�k��,2.4,�k�k��,5.6,79,0,0,0,5.5
2020-02-17T05:15:00+09:00,1.6,�k��,2.4,���k��,5.6,79.2,0,0,0,5.5
2020-02-17T05:16:00+09:00,1.6,�k��,2.4,���k��,5.6,78.9,0,0,0,5.5
2020-02-17T05:17:00+09:00,1.5,�k��,2.4,���k��,5.7,78.9,0,0,0,5.5
2020-02-17T05:18:00+09:00,1.5,�k��,2.4,���k��,5.8,78.5,0,0,0,5.5
2020-02-17T05:19:00+09:00,1.5,�k��,2.4,���k��,5.8,78.4,0,0,0,5.5
2020-02-17T05:20:00+09:00,1.5,�k��,2.6,�k��,5.7,77.9,0,0,0,5.5
2020-02-17T05:21:00+09:00,1.5,�k��,2.6,�k��,5.8,77.8,0,0,0,5.5
2020-02-17T05:22:00+09:00,1.5,�k��,2.6,�k��,5.7,77.7,0,0,0,5.5
2020-02-17T05:23:00+09:00,1.6,�k��,2.6,�k��,5.7,77.8,0,0,0,5.5
2020-02-17T05:24:00+09:00,1.6,�k��,2.6,�k��,5.7,77.6,0,0,0,5.5
2020-02-17T05:25:00+09:00,1.6,�k��,2.6,�k��,5.6,77.4,0,0,0,5.5
2020-02-17T05:26:00+09:00,1.5,�k��,2.6,�k��,5.6,77.3,0,0,0,5.5
2020-02-17T05:27:00+09:00,1.6,�k��,2.6,�k��,5.6,77.3,0,0,0,5.5
2020-02-17T05:28:00+09:00,1.6,�k��,2.6,�k��,5.6,78,0,0,0,5.5
2020-02-17T05:29:00+09:00,1.5,�k�k��,2.6,�k��,5.5,78.4,0,0,0,5.5
2020-02-17T05:30:00+09:00,1.5,�k�k��,2.4,�k��,5.5,79,0,0,0,5.5
2020-02-17T05:31:00+09:00,1.5,�k�k��,2.4,�k��,5.5,79.8,0,0,0,5.5
2020-02-17T05:32:00+09:00,1.4,�k�k��,2.4,�k��,5.5,79.8,0,0,0,5.5
2020-02-17T05:33:00+09:00,1.3,�k�k��,2.3,�k��,5.5,80.3,0,0,0,5.5
2020-02-17T05:34:00+09:00,1.3,�k�k��,2,�k,5.5,80.4,0,0,0,5.5
2020-02-17T05:35:00+09:00,1.2,�k�k��,2,�k,5.5,79.9,0,0,0,5.5
2020-02-17T05:36:00+09:00,1.2,�k�k��,2,�k,5.5,79.5,0,0,0,5.5
2020-02-17T05:37:00+09:00,1.2,�k�k��,2,�k,5.6,79.8,0,0,0,5.5
2020-02-17T05:38:00+09:00,1.1,�k�k��,2,�k,5.6,79.8,0,0,0,5.5
2020-02-17T05:39:00+09:00,1.1,�k�k��,1.8,�k�k��,5.7,79.4,0,0,0,5.5
2020-02-17T05:40:00+09:00,1.1,�k�k��,1.9,�k��,5.7,78.9,0,0,0,5.5
2020-02-17T05:41:00+09:00,1,�k�k��,1.9,�k��,5.7,78.1,0,0,0,5.5
2020-02-17T05:42:00+09:00,1.1,�k�k��,1.9,�k��,5.7,77.5,0,0,0,5.5
2020-02-17T05:43:00+09:00,1.1,�k��,1.9,�k��,5.8,77.5,0,0,0,5.5
2020-02-17T05:44:00+09:00,1.1,�k��,1.9,�k��,5.8,77.4,0,0,0,5.5
2020-02-17T05:45:00+09:00,1.2,�k��,1.9,�k��,5.8,76.8,0,0,0,5.5
2020-02-17T05:46:00+09:00,1.2,�k��,1.9,�k��,5.7,76,0,0,0,5.5
2020-02-17T05:47:00+09:00,1.2,�k��,1.9,�k��,5.7,75.7,0,0,0,5.5
2020-02-17T05:48:00+09:00,1.3,�k��,1.9,�k��,5.7,75.9,0,0,0,5.5
2020-02-17T05:49:00+09:00,1.3,�k��,2.1,�k��,5.7,76.1,0,0,0,5.5
2020-02-17T05:50:00+09:00,1.4,�k��,2.3,�k��,5.7,75.8,0,0,0,5.5
2020-02-17T05:51:00+09:00,1.4,�k��,2.3,�k��,5.7,76,0,0,0,5.5
2020-02-17T05:52:00+09:00,1.4,�k��,2.3,�k��,5.7,75.9,0,0,0,5.5
2020-02-17T05:53:00+09:00,1.5,�k��,2.3,�k��,5.8,75.7,0,0,0,5.5
2020-02-17T05:54:00+09:00,1.4,�k��,2.3,�k��,5.7,75.3,0,0,0,5.5
2020-02-17T05:55:00+09:00,1.3,�k��,2.3,�k��,5.8,75.5,0,0,0,5.5
2020-02-17T05:56:00+09:00,1.3,�k��,2.3,�k��,5.8,75.9,0,0,0,5.5
2020-02-17T05:57:00+09:00,1.2,�k��,2.3,�k��,5.8,75.6,0,0,0,5.5
2020-02-17T05:58:00+09:00,1.2,�k��,2.3,�k��,5.8,75.4,0,0,0,5.5
2020-02-17T05:59:00+09:00,1.2,�k��,2.3,�k��,5.8,75.5,0,0,0,5.5
2020-02-17T06:00:00+09:00,1,�k��,2,�k��,5.8,75.5,0,0,0,5.5
2020-02-17T06:01:00+09:00,1,�k��,2,�k��,5.8,75.4,0,0,0,5.5
2020-02-17T06:02:00+09:00,1,�k��,1.8,���k��,5.9,76.1,0,0,0,5.5
2020-02-17T06:03:00+09:00,1,���k��,2.2,���k��,5.8,75.4,0,0,0,5.5
2020-02-17T06:04:00+09:00,1.1,���k��,2.2,���k��,5.7,75.5,0,0,0,5.5
2020-02-17T06:05:00+09:00,1.1,���k��,2.2,���k��,5.8,75.9,0,0,0,5.5
2020-02-17T06:06:00+09:00,1.1,���k��,2.2,���k��,5.7,76.2,0,0,0,5.5
2020-02-17T06:07:00+09:00,1.1,���k��,2.2,���k��,5.7,76.2,0,0,0,5.5
2020-02-17T06:08:00+09:00,1,���k��,2.2,���k��,5.7,76.1,0,0,0,5.5
2020-02-17T06:09:00+09:00,1,�k��,2.2,���k��,5.7,76,0,0,0,5.5
2020-02-17T06:10:00+09:00,0.9,�k��,2.2,���k��,5.8,75.7,0,0,0,5.5
2020-02-17T06:11:00+09:00,0.9,�k��,2.2,���k��,5.7,75.5,0,0,0,5.5
2020-02-17T06:12:00+09:00,0.8,�k��,2.2,���k��,5.6,75.1,0,0,0,5.5
2020-02-17T06:13:00+09:00,0.7,�k��,1.8,���k��,5.7,75.5,0,0,0,5.5
2020-02-17T06:14:00+09:00,0.6,�k��,1.1,�k�k��,5.7,75.3,0,0,0,5.5
2020-02-17T06:15:00+09:00,0.6,���k��,1.1,�k�k��,5.7,75,0,0,0,5.5
2020-02-17T06:16:00+09:00,0.6,���k��,0.8,���k��,5.7,75,0,0,0,5.5
2020-02-17T06:17:00+09:00,0.5,���k��,0.8,���k��,5.7,75.6,0,0,0,5.5
2020-02-17T06:18:00+09:00,0.5,���k��,0.8,���k��,5.6,75.3,0,0,0,5.5
2020-02-17T06:19:00+09:00,0.5,���k��,0.8,���k��,5.6,76.2,0,0,0,5.5
2020-02-17T06:20:00+09:00,0.5,��,0.8,���k��,5.6,77.3,0,0,0,5.5
2020-02-17T06:21:00+09:00,0.5,��,1.7,��,5.5,77.4,0,0,0,5.5
2020-02-17T06:22:00+09:00,0.6,��,2,��,5.4,78.4,0,0,0,5.5
2020-02-17T06:23:00+09:00,0.8,��,2.4,���k��,5.4,79.4,0,0,0,5.5
2020-02-17T06:24:00+09:00,0.8,��,2.4,���k��,5.4,80.2,0,0,0,5.5
2020-02-17T06:25:00+09:00,0.9,��,2.4,���k��,5.3,80.7,0,0,0,5.5
2020-02-17T06:26:00+09:00,0.9,��,2.4,���k��,5.2,80.6,0,0,0,5.5
2020-02-17T06:27:00+09:00,0.9,��,2.4,���k��,5.1,80.7,0,0,0,5.5